Weather in Nizhny Novgorod

Russia / Nizhny Novgorod Oblast'     56°19′36″N   44°00′21″E
temp.,
°C
wind,
m/s
gust,
m/s
humid.,
%
clouds,
%
prec.,
mm/h
press.,
hPa
HPBL,
m
12 august, fri
fri1200:00+16nw11591 0.0 102411
03:00+15wnw11645 0.0 102511
06:00+16w126753 0.0 102586
09:00+21w235171 0.0 1024601
12:00+25w333896 0.0 10241498
15:00+26w343368 0.0 10221686
18:00+25wnw244219 0.0 1021929
21:00+20w12555 0.0 102219
13 august, sat
sat1300:00+18w226212 0.0 102240
03:00+17wnw226764 0.0 102230
06:00+17nw1269100 0.0 102382
09:00+22nnw1256100 0.0 1022408
12:00+26nw2246100 0.0 10221348
15:00+27n2243100 0.0 10211736
18:00+25nne2251100 0.0 1020315
21:00+21ne0160100 0.0 102011
14 august, sun
sun1400:00+19sse11685 0.0 102111
03:00+18s1173100 0.0 102111
06:00+19ssw117187 0.0 102132
09:00+24s115498 0.0 1021517
12:00+27se004330 0.0 10201722
15:00+28ene013624 0.0 10192239
18:00+26ne224691 0.0 1019477
21:00+24sse1253100 0.0 102089
15 august, mon
mon1500:00+22e125835 0.0 102031
03:00+21ese116245 0.0 102111
06:00+20ne126648 0.0 102283
09:00+23ese225685 0.0 1022345
12:00+28ese11381 0.0 10221823
15:00+28ese223999 0.0 10221479
18:00+25e35506 0.0 1022409
21:00+22e256326 0.0 1023187
16 august, tue
tue1600:00+20ese24734 0.0 1024125
03:00+18e24762 0.0 1025107
06:00+18e24745 0.0 1025152
09:00+23ese35535 0.0 1026599
12:00+27e34410 0.0 10251738
15:00+28e44365 0.0 10242146
18:00+26e35425 0.0 10241181
21:00+21ese38585 0.0 1025243